{"data":{"norad_id":66491,"intl_designator":"2025-263G","name":"STARLINK-35663","alt_names":[],"object_type":"PAYLOAD","status":"ACTIVE","operator":null,"country":"US","launch_date":"2025-11-15","launch_site_code":"AFETR","launch_vehicle":null,"mission":null,"orbit_class":"UNKNOWN","rcs_meters":null,"size_class":null,"mass_kg":null,"dimensions":null,"purposes":["comms"],"wikipedia_slug":null,"has_3d_model":false,"image_url":null,"decayed_at":null,"tle_current":{"epoch":"2026-05-25T02:24:05.592672Z","epoch_age_seconds":62564,"freshness":"FRESH","line1":"1 66491U 25263G   26145.10006473 -.00017846  00000+0 -64050-3 0  9998","line2":"2 66491  43.0043 279.2713 0000803 243.0668 117.0102 15.27582636 30586","mean_motion":15.27582636,"eccentricity":8.03e-5,"inclination_deg":43.0043,"raan_deg":279.2713,"arg_perigee_deg":243.0668,"mean_anomaly_deg":117.0102,"bstar":-0.0006405,"rev_number":3058,"period_min":94.26658604674,"perigee_km":482.49025030901,"apogee_km":483.5921555284,"semimajor_km":6861.1782029187,"source":"CELESTRAK","updated_at":"2026-05-25T13:38:21.242934Z"}}}